HST 1 20580U 90037B 26207.58105962 .00006253 00000+0 19425-3 0 9996 2 20580 28.4720 171.2413 0001717 219.3471 140.7000 15.31162774794618 POLAR 1 23802U 96013A 26205.00845484 .00000228 00000+0 00000+0 0 9992 2 23802 79.9050 226.6142 6507374 207.8131 92.3130 1.29845983145337 SWAS 1 25560U 98071A 26207.17334458 .00004136 00000+0 26154-3 0 9999 2 25560 69.8959 126.9675 0007221 217.3482 142.7181 15.09813402503152 CXO 1 25867U 99040B 26209.04610948 .00000804 00000+0 00000+0 0 9991 2 25867 56.7072 115.6151 7770389 309.8621 0.6215 0.37793771 17474 XMM-NEWTON 1 25989U 99066A 26207.24358605 .00000084 00000+0 00000+0 0 9993 2 25989 64.2780 282.4824 4663641 64.1910 0.0496 0.50127282 23206 TERRA 1 25994U 99068A 26207.61873091 .00000427 00000+0 95757-4 0 9992 2 25994 97.9435 255.5969 0003680 100.5581 59.3014 14.61131363415366 CLUSTER II-FM7 (SAMBA) 1 26410U 00041A 26208.29243599 .00262361 -16028-2 00000+0 0 9998 2 26410 149.7559 58.0279 9099375 275.7267 359.3887 0.44872311 20492 CLUSTER II-FM8 (TANGO) 1 26464U 00045B 26206.70593187 .00032243 -22019-4 00000+0 0 9999 2 26464 149.9527 58.9841 9101088 276.5016 1.9665 0.44431537 20482 ODIN 1 26702U 01007A 26208.23177061 .00766068 28142-3 13729-2 0 9997 2 26702 97.3671 252.3108 0007803 183.3754 176.7473 16.01704539395741 TIMED 1 26998U 01055B 26207.28044133 .00001331 00000+0 12411-3 0 9996 2 26998 74.0679 156.3010 0002423 287.8264 72.2656 14.95366228336661 CORIOLIS 1 27640U 03001A 26207.58700946 .00000119 00000+0 76516-4 0 9998 2 27640 98.7141 213.8723 0015202 98.8114 261.4784 14.19954596219814 SORCE 1 27651U 03004A 26207.58689947 .00003134 00000+0 23356-3 0 9993 2 27651 39.9919 36.8526 0018152 330.8893 29.0889 15.03894337277830 MOST 1 27843U 03031D 26207.63338714 .00000081 00000+0 57074-4 0 9998 2 27843 98.7057 214.8104 0010670 133.9200 226.2860 14.21329706196315 SCISAT 1 1 27858U 03036A 26207.12215595 .00000706 00000+0 94723-4 0 9990 2 27858 73.9298 93.9841 0006833 158.5876 201.5588 14.81490117237214 SWIFT 1 28485U 04047A 26207.31891484 .00065122 00000+0 45871-3 0 9990 2 28485 20.5511 242.1713 0002481 146.0716 213.9890 15.72306846193022 HINODE (SOLAR-B) 1 29479U 06041A 26207.63311456 .00000792 00000+0 14419-3 0 9997 2 29479 98.0549 223.2047 0018000 158.4987 201.6978 14.68671168 60668 SHIJIAN-6 02A (SJ-6 02A) 1 29505U 06046A 26207.59837795 .00007654 00000+0 38670-3 0 9995 2 29505 97.6345 248.9666 0003416 34.9772 325.1685 15.17358754 78241 SHIJIAN-6 02B (SJ-6 02B) 1 29506U 06046B 26207.60028586 .00001085 00000+0 88649-4 0 9992 2 29506 97.7143 236.4134 0012321 293.9815 66.0118 15.01455445 76654 FGRST (GLAST) 1 33053U 08029A 26207.57870318 .00003509 00000+0 12667-3 0 9990 2 33053 25.5827 290.9318 0008540 72.9391 287.2083 15.24129930 1709 SDO 1 36395U 10005A 26205.23547819 -.00000101 00000+0 00000+0 0 9997 2 36395 34.7257 85.7785 0001540 47.6832 151.1586 1.00277666 60431 CRYOSAT 2 1 36508U 10013A 26207.64169209 .00000107 00000+0 25727-4 0 9995 2 36508 92.0351 286.8929 0002568 98.2993 261.8505 14.51900671863805 X-SAT 1 37389U 11015C 26207.61061089 .00000308 00000+0 14869-3 0 9997 2 37389 98.3536 182.7617 0013003 223.9652 136.0495 14.25217265793297 GCOM-W1 (SHIZUKU) 1 38337U 12025A 26207.38993802 .00000498 00000+0 12051-3 0 9995 2 38337 98.2025 147.3525 0001289 82.4329 28.9493 14.57098775754742 NUSTAR 1 38358U 12031A 26207.66671296 .00008305 00000+0 45457-3 0 9997 2 38358 6.0263 97.9132 0008622 329.7403 250.3623 15.09133051 1306 NEOSSAT 1 39089U 13009D 26207.44287238 .00000180 00000+0 76838-4 0 9991 2 39089 98.4196 26.5462 0012006 126.0132 234.2169 14.35839008702374 BRITE-AUSTRIA 1 39091U 13009F 26207.42194323 .00000207 00000+0 84993-4 0 9995 2 39091 98.4014 25.8911 0011266 120.0199 240.2107 14.36556431702681 IRIS 1 39197U 13033A 26207.49116983 .00001209 00000+0 14425-3 0 9997 2 39197 97.9314 46.6442 0024141 187.0118 173.0763 14.85957150706216 HISAKI (SPRINT-A) 1 39253U 13049A 26207.45695995 .00000100 00000+0 48061-4 0 9991 2 39253 29.7219 20.3587 0136886 335.1186 24.2835 13.55547382636752 CASSIOPE 1 39265U 13055A 26207.54933435 .00020364 -45114-6 21800-3 0 9993 2 39265 80.9134 18.7957 0280890 289.3036 67.8016 15.27847586673677 STSAT-3 1 39422U 13066G 26207.59574959 .00003320 00000+0 25139-3 0 9996 2 39422 97.6229 176.8506 0008602 259.2463 100.7794 15.02953495690126 SWARM B 1 39451U 13067A 26207.60743776 .00004032 00000+0 14302-3 0 9997 2 39451 87.7469 330.3437 0002251 94.5188 265.6319 15.28782644689263 SWARM A 1 39452U 13067B 26207.57341279 .00009775 00000+0 17271-3 0 9993 2 39452 87.3295 41.5950 0002697 74.4375 285.7184 15.50178074712358 SWARM C 1 39453U 13067C 26207.50819427 .00009764 00000+0 17404-3 0 9998 2 39453 87.3296 40.1997 0003194 88.3246 271.8380 15.49924180712304 BRITE-CA1 (TORONTO) 1 40020U 14033L 26207.30916359 .00001295 00000+0 20094-3 0 9994 2 40020 97.9782 335.5264 0079265 150.8308 209.7362 14.72743731647973 OCO 2 1 40059U 14035A 26207.57141094 .00000448 00000+0 10939-3 0 9999 2 40059 98.2022 148.2671 0001376 80.8177 279.3177 14.57140123641780 BRITE-PL2 (HEWELIUSZ) 1 40119U 14049B 26207.26887938 .00002256 00000+0 21297-3 0 9999 2 40119 97.9125 319.5791 0013396 346.0037 14.0809 14.94719727647280 MMS 1 1 40482U 15011A 26207.66671296 -.00001771 00000+0 00000+0 0 9991 2 40482 72.5344 348.3419 8295547 168.2116 5.8813 0.28375762 1390 MMS 2 1 40483U 15011B 26207.66671296 -.00001772 00000+0 00000+0 0 9993 2 40483 72.5386 348.3409 8298378 168.2133 5.8670 0.28376777 1398 MMS 3 1 40484U 15011C 26207.66671296 -.00001771 00000+0 00000+0 0 9993 2 40484 72.5381 348.3529 8296728 168.2220 5.8409 0.28375881 1363 MMS 4 1 40485U 15011D 26207.66671296 -.00001771 00000+0 00000+0 0 9994 2 40485 72.5335 348.3364 8296691 168.2319 5.8375 0.28375890 1393 ASTROSAT 1 40930U 15052A 26207.58015047 .00001762 00000+0 13240-3 0 9994 2 40930 5.9958 231.7953 0008346 240.1194 119.8104 14.82569147585689 DAMPE 1 41173U 15078A 26207.58405528 .00001533 00000+0 53953-4 0 9991 2 41173 97.4573 213.2489 0010424 301.7015 58.3209 15.30878651590577 PISAT 1 41784U 16059B 26207.58206854 .00001208 00000+0 21233-3 0 9994 2 41784 97.8199 206.3463 0030550 80.1910 280.2744 14.69048911525524 HXMT (HUIYAN) 1 42758U 17034A 26207.59788240 .00005808 00000+0 28226-3 0 9994 2 42758 43.0158 323.5434 0030638 33.0613 327.2144 15.18783463503657 FLYING LAPTOP 1 42831U 17042G 26207.64367424 .00003092 00000+0 24351-3 0 9996 2 42831 97.4854 1.7066 0018938 355.9690 4.1379 15.01372072492370 ZHANGHENG 1-01 (CSES-1) 1 43194U 18015C 26207.61665821 .00007842 00000+0 35820-3 0 9999 2 43194 97.6896 14.0636 0017068 127.3507 232.9285 15.20739453470635 SALSAT 1 46495U 20068K 26207.58081109 .00007851 00000+0 27023-3 0 9990 2 46495 97.8863 213.0615 0010435 154.3892 205.7866 15.30310578321388 IXPE 1 49954U 21121A 26207.66671296 .00011385 00000+0 61403-3 0 9992 2 49954 0.2310 18.7007 0006959 319.4349 342.1957 15.10578290 5794 SMILE 1 69123U 26109A 26194.95939329 .00000936 00000+0 00000+0 0 9996 2 69123 70.0512 206.6048 8313707 286.9544 0.1879 0.47500629 65